Date String (YYYY-MM-DD hh:mm:ss) UTC,Instrument flags,Ambient pressure (hPa),Sample flow (lpm),Bypass flow (lpm),Sample temperature (°C),Ambient temperature (°C),ASC tube jacket temperature (°C),LED temperature (°C),Box temperature (°C),Sample RH (%),Span deviation,Mass concentration (μg/m³),Mass concentration (μg/m³),Mass concentration (μg/m³)
DateTimeUTC,F1_M11,P_M11,Q1_M11,Q2_M11,T1_M11,T2_M11,T3_M11,T4_M11,T5_M11,U1_M11,ZSPAN_M11,X2_M11,X0_M11,X1_M11
2023-01-01 17:00:00,,0819.3,4.96,0.00,22.4,21.2,00.0,31.3,24.1,14.2,0000.0,0003.44,0008.27,0003.26
2023-01-01 17:01:00,,0819.2,4.98,0.00,22.4,21.2,00.0,31.3,24.1,14.2,0000.0,0003.45,0008.30,0003.28
2023-01-01 17:02:00,,0819.2,5.05,0.00,22.4,21.2,00.0,31.3,24.2,14.2,0000.0,0003.49,0008.52,0003.32
2023-01-01 17:03:00,,0819.3,4.98,0.00,22.5,21.2,00.0,31.3,24.2,14.3,0000.0,0003.54,0009.36,0003.35
2023-01-01 17:04:00,,0819.3,4.98,0.00,22.5,21.2,00.0,31.3,24.2,14.5,0000.0,0003.64,0009.47,0003.42
2023-01-01 17:05:00,,0819.3,5.01,0.00,22.5,21.2,00.0,31.3,24.3,14.4,0000.0,0003.76,0009.24,0003.51
2023-01-01 17:06:00,,0819.3,5.03,0.00,22.5,21.2,00.0,31.3,24.3,14.4,0000.0,0003.95,0008.99,0003.69
2023-01-01 17:07:00,,0819.3,5.00,0.00,22.5,21.2,00.0,31.3,24.3,14.4,0000.0,0004.16,0008.42,0003.87
2023-01-01 17:08:00,,0819.3,4.96,0.00,22.5,21.3,00.0,31.3,24.3,14.4,0000.0,0004.30,0008.44,0004.00
2023-01-01 17:09:00,,0819.2,4.96,0.00,22.5,21.3,00.0,31.3,24.3,14.4,0000.0,0004.42,0008.39,0004.11
2023-01-01 17:10:00,,0819.2,5.05,0.00,22.5,21.3,00.0,31.3,24.3,14.3,0000.0,0004.54,0008.38,0004.23
2023-01-01 17:11:00,,0819.3,5.00,0.00,22.5,21.3,00.0,31.3,24.3,14.4,0000.0,0004.67,0008.91,0004.35
2023-01-01 17:12:00,,0819.3,4.98,0.00,22.5,21.3,00.0,31.3,24.3,14.4,-000.5,0004.84,0010.14,0004.51
2023-01-01 17:13:00,,0819.4,4.96,0.00,22.5,21.3,00.0,31.3,24.3,14.5,-000.8,0005.08,0010.31,0004.73
2023-01-01 17:14:00,,0819.4,5.00,0.00,22.5,21.3,00.0,31.3,24.3,14.5,-000.3,0005.36,0009.86,0004.98
2023-01-01 17:15:00,,0819.5,5.02,0.00,22.5,21.3,00.0,31.4,24.3,14.5,0000.0,0005.63,0010.23,0005.21
2023-01-01 17:16:00,,0819.4,5.00,0.00,22.6,21.3,00.0,31.4,24.3,14.6,-000.2,0005.85,0010.43,0005.41
2023-01-01 17:17:00,,0819.3,4.98,0.00,22.6,21.3,00.0,31.4,24.4,14.7,0000.0,0005.98,0010.51,0005.55
2023-01-01 17:18:00,,0819.2,4.99,0.00,22.6,21.3,00.0,31.4,24.4,14.8,0000.5,0006.26,0011.06,0005.78
2023-01-01 17:19:00,,0819.2,4.98,0.00,22.5,21.2,00.0,31.4,24.3,14.9,0000.3,0006.76,0011.63,0006.24
2023-01-01 17:20:00,,0819.3,5.04,0.00,22.5,21.2,00.0,31.4,24.3,14.9,0000.3,0007.27,0012.17,0006.76
2023-01-01 17:21:00,,0819.4,5.04,0.00,22.6,21.7,00.0,31.3,24.5,15.0,0000.2,0007.75,0012.63,0007.24
2023-01-01 17:22:00,,0819.4,4.99,0.00,22.7,22.6,00.0,31.3,24.7,14.9,0000.4,0008.28,0012.77,0007.78
2023-01-01 17:23:00,,0819.4,4.96,0.00,22.8,23.3,00.0,31.4,24.9,14.9,0000.6,0008.83,0012.69,0008.32
2023-01-01 17:24:00,,0819.4,4.99,0.00,22.8,23.0,00.0,31.4,24.9,14.9,0000.4,0009.36,0013.34,0008.83
2023-01-01 17:25:00,,0819.3,4.99,0.00,22.8,22.6,00.0,31.5,24.8,14.9,-000.3,0009.86,0013.84,0009.34
2023-01-01 17:26:00,,0819.2,5.03,0.00,22.8,22.3,00.0,31.5,24.8,14.9,-000.8,0010.37,0014.38,0009.89
2023-01-01 17:27:00,,0819.3,5.05,0.00,22.8,22.1,00.0,31.5,24.7,15.0,-000.8,0010.94,0015.05,0010.45
2023-01-01 17:28:00,,0819.3,4.98,0.00,22.8,21.9,00.0,31.6,24.7,15.0,-001.0,0011.50,0015.60,0011.03
2023-01-01 17:29:00,,0819.3,4.99,0.00,22.8,21.8,00.0,31.6,24.7,14.9,-001.1,0011.93,0015.83,0011.51
2023-01-01 17:30:00,,0819.2,5.06,0.00,22.8,21.7,00.0,31.6,24.7,15.0,-001.0,0012.20,0016.28,0011.80
2023-01-01 17:31:00,,0819.3,4.98,0.00,22.8,21.6,00.0,31.6,24.7,15.0,-001.0,0012.55,0016.68,0012.13
2023-01-01 17:32:00,,0819.3,5.00,0.00,22.8,21.6,00.0,31.6,24.7,15.0,-000.8,0012.99,0017.14,0012.57
2023-01-01 17:33:00,,0819.3,4.98,0.00,22.8,21.5,00.0,31.6,24.6,15.1,-000.8,0013.38,0017.62,0012.93
2023-01-01 17:34:00,,0819.4,4.99,0.00,22.8,21.5,00.0,31.6,24.6,15.2,-001.1,0013.91,0017.89,0013.44
2023-01-01 17:35:00,,0819.4,5.02,0.00,22.8,21.5,00.0,31.6,24.6,15.2,-001.0,0014.42,0018.19,0013.98
2023-01-01 17:36:00,,0819.4,4.99,0.00,22.8,21.5,00.0,31.6,24.6,15.2,-000.7,0015.04,0018.85,0014.59
2023-01-01 17:37:00,,0819.3,4.98,0.00,22.8,21.6,00.0,31.6,24.6,15.2,-000.6,0015.71,0019.58,0015.23
2023-01-01 17:38:00,,0819.3,5.02,0.00,22.8,21.6,00.0,31.6,24.6,15.2,-000.6,0016.32,0020.08,0015.87
2023-01-01 17:39:00,,0819.2,4.96,0.00,22.8,21.6,00.0,31.6,24.6,15.2,-000.5,0016.88,0020.60,0016.43
2023-01-01 17:40:00,,0819.3,5.06,0.00,22.8,21.6,00.0,31.6,24.6,15.2,-000.5,0017.48,0021.12,0017.04
2023-01-01 17:41:00,,0819.2,5.00,0.00,22.8,21.6,00.0,31.6,24.6,15.2,-000.5,0018.06,0021.36,0017.63
2023-01-01 17:42:00,,0819.2,4.98,0.00,22.8,21.6,00.0,31.6,24.6,15.2,-000.4,0018.60,0021.83,0018.17
2023-01-01 17:43:00,,0819.3,4.97,0.00,22.8,21.6,00.0,31.6,24.6,15.2,-000.4,0019.09,0022.34,0018.67
2023-01-01 17:44:00,,0819.3,5.04,0.00,22.8,21.6,00.0,31.6,24.6,15.2,-000.6,0019.55,0022.70,0019.14
2023-01-01 17:45:00,,0819.2,5.02,0.00,22.8,21.6,00.0,31.6,24.6,15.2,-000.2,0019.89,0022.98,0019.47
2023-01-01 17:46:00,,0819.2,4.99,0.00,22.8,21.6,00.0,31.6,24.6,15.2,-000.4,0020.11,0023.19,0019.69
2023-01-01 17:47:00,,0819.2,4.98,0.00,22.8,21.6,00.0,31.6,24.6,15.2,-000.8,0020.18,0023.21,0019.79
2023-01-01 17:48:00,,0819.2,4.98,0.00,22.8,21.7,00.0,31.6,24.6,15.1,-000.8,0020.19,0023.08,0019.85
2023-01-01 17:49:00,,0819.1,5.02,0.00,22.8,21.7,00.0,31.6,24.7,15.1,-000.5,0020.26,0023.14,0019.90
2023-01-01 17:50:00,,0819.1,5.03,0.00,22.8,21.7,00.0,31.6,24.6,15.1,-000.4,0020.35,0023.30,0019.96
2023-01-01 17:51:00,,0819.1,5.00,0.00,22.9,21.7,00.0,31.6,24.6,15.1,-000.6,0020.40,0023.63,0019.99
2023-01-01 17:52:00,,0819.1,4.97,0.00,22.9,21.7,00.0,31.7,24.7,15.0,-000.8,0020.41,0023.99,0019.99
2023-01-01 17:53:00,,0819.1,4.97,0.00,22.9,21.7,00.0,31.7,24.7,15.0,-000.9,0020.45,0024.07,0020.04
2023-01-01 17:54:00,,0819.0,5.01,0.00,22.9,21.7,00.0,31.7,24.7,15.0,-001.0,0020.46,0024.67,0020.05
2023-01-01 17:55:00,,0819.0,5.02,0.00,22.9,21.7,00.0,31.7,24.7,15.1,-001.0,0020.41,0024.72,0020.01
2023-01-01 17:56:00,,0819.0,5.01,0.00,22.9,21.7,00.0,31.7,24.7,15.0,-001.2,0020.35,0024.72,0019.96
2023-01-01 17:57:00,,0819.0,5.00,0.00,22.9,21.7,00.0,31.7,24.7,15.0,-001.2,0020.36,0025.01,0019.94
2023-01-01 17:58:00,,0819.0,4.97,0.00,22.9,21.7,00.0,31.7,24.7,15.0,-000.8,0020.39,0025.12,0019.95
2023-01-01 17:59:00,,0819.0,4.99,0.00,22.9,21.7,00.0,31.7,24.7,15.0,-000.8,0020.46,0025.26,0019.97
